Starlink 32877

operational
NORAD ID: 62960 Int'l Des: 2025-029 Owner: SPXS Country: US Constellation: starlink
LEOCIRCULAR

关于 Starlink 32877

正在加载描述...

实时位置

正在加载3D地球...

即将过境

高度历史

Altitude vs Time

uPlot chart will show altitude changes over time

两行轨道根数

1 62960U 25029N 25305.86762653 .00049185 00000-0 16598-2 0 9997
2 62960 53.1583 106.4491 0000307 13.7467 346.3542 15.30239486 41725
Epoch: Nov 1, 2025 • Age: 35 hours

当前状态

高度 483.3 km
速度 7.62 km/s
星下点 -28.24°S, 136.64°E
发射日期 Feb 11, 2025
运行时间 0.7 years
类型 internet

技术详情

分类 Payload
质量 730.00 kg
干质量 700.00 kg
总质量 730.00 kg
长度 0.30 m
直径 4.10 m
跨度 29.00 m
形状 Box + pan
制造商 SPXS
平台类型 Starlink V2M
阶段状态 In Orbit
所有者/国家 SPXS/US

大型星座

Loading constellations...